User: anonymous   Login
Location: Irma
(52.9170°N, 111.2330°W)
Time: 03:44:35
(UTC-06:00)
Language:

Meteor 1-24 Rocket - Orbit

View from above orbital plane
View from above orbital plane
View from above satellite
View from above satellite

Ground track
Ground track

The orbit data is extracted from the following two-line orbital elements,

1 08800U 76032B   15153.15345493  .00000127  00000-0  61527-4 0  9998
2 08800 081.2525 223.0535 0096472 136.7102 224.1702 14.10032929 13046
Epoch (UTC): 02 June 2015 03:40:58
Eccentricity: 0.0096472
inclination: 81.2525°
perigee height: 789 km
apogee height: 929 km
right ascension of ascending node: 223.0535°
argument of perigee: 136.7102°
revolutions per day: 14.10032929
mean anomaly at epoch: 224.1702°
orbit number at epoch: 1304

The dashed part of the orbit path shows where the satellite is in the earth's shadow,  

DLR